Weather History for McComb, MS

Change the Weather History Date:

Tuesday, August 6, 2013

  Actual Average Record
Temperature  
Mean Temperature 85 °F -  
Max Temperature 96 °F 91 °F 98 °F (1972)
Min Temperature 75 °F 69 °F 61 °F (1974)
Cooling Degree Days 20    
Growing Degree Days 35 (Base 50)    
Moisture  
Dew Point 73 °F    
Average Humidity 71    
Maximum Humidity 94    
Minimum Humidity 43    
Precipitation  
Precipitation 0.00 in - - ()
Sea Level Pressure  
Sea Level Pressure 29.96 in    
Wind  
Wind Speed 2 mph (West)    
Max Wind Speed 8 mph    
Max Gust Speed -    
Visibility 9 miles    
Events      
Averages and records for this station are not official NWS values.
T = Trace of Precipitation, MM = Missing Value Source: NWS Daily Summary

Daily Weather History Graph

Daily Weather History Graph

Search for Another Location

Airport:

Trip Planner

Search our weather history database for the weather conditions in past years. The results will help you decide how hot, cold, wet, or windy it might be!

Date:

Astronomy

Aug. 06, 2013 Rise Set
Actual Time 6:22 AM CDT 7:52 PM CDT
Civil Twilight 5:56 AM CDT 8:18 PM CDT
Nautical Twilight 5:24 AM CDT 8:49 PM CDT
Astronomical Twilight 4:52 AM CDT 9:22 PM CDT
Moon 6:09 AM CDT (8/6) 7:33 PM CDT (8/6)
Length of Visible Light 14h 22m
Length of Day
13h 30m
Waning Crescent, 0% of the Moon is Illuminated
Aug 6
Waning Crescent
Aug 6
New
Aug 14
First Quarter
Aug 20
Full
Aug 28
Last Quarter

Hourly Weather History & Observations

Time (CDT) Temp. Heat Index Dew Point Humidity Pressure Visibility Wind Dir Wind Speed Gust Speed Precip Events Conditions
12:53 AM 79.0 °F - 75.0 °F 88% 29.96 in 10.0 mi Calm Calm - N/A   Clear
1:53 AM 77.0 °F - 73.9 °F 90% 29.94 in 8.0 mi Calm Calm - N/A   Clear
2:53 AM 77.0 °F - 73.9 °F 90% 29.94 in 9.0 mi Calm Calm - N/A   Clear
3:53 AM 77.0 °F - 73.9 °F 90% 29.95 in 10.0 mi Calm Calm - N/A   Clear
4:53 AM 75.9 °F - 73.9 °F 94% 29.95 in 9.0 mi Calm Calm - N/A   Clear
5:53 AM 75.0 °F - 73.0 °F 94% 29.96 in 8.0 mi Calm Calm - N/A   Clear
6:53 AM 75.0 °F - 73.0 °F 94% 29.98 in 5.0 mi Calm Calm - N/A   Clear
7:53 AM 77.0 °F - 75.0 °F 94% 30.00 in 7.0 mi Variable 4.6 mph - N/A   Clear
8:21 AM 80.6 °F 86.2 °F 75.2 °F 84% 30.02 in 10.0 mi West 4.6 mph - N/A   Partly Cloudy
8:53 AM 82.0 °F 89.4 °F 75.9 °F 82% 30.00 in 10.0 mi West 5.8 mph - N/A   Partly Cloudy
9:53 AM 86.0 °F 95.1 °F 75.0 °F 70% 30.01 in 10.0 mi West 5.8 mph - N/A   Clear
10:53 AM 88.0 °F 95.6 °F 73.0 °F 61% 29.99 in 10.0 mi NW 6.9 mph - N/A   Clear
11:53 AM 90.0 °F 96.9 °F 72.0 °F 55% 29.98 in 10.0 mi WNW 5.8 mph - N/A   Clear
12:53 PM 91.9 °F 96.9 °F 69.1 °F 47% 29.97 in 10.0 mi West 8.1 mph - N/A   Clear
1:53 PM 93.9 °F 100.3 °F 70.0 °F 46% 29.97 in 10.0 mi WNW 6.9 mph - N/A   Partly Cloudy
2:53 PM 95.0 °F 100.7 °F 69.1 °F 43% 29.94 in 10.0 mi Variable 6.9 mph - N/A   Partly Cloudy
3:53 PM 93.0 °F 99.0 °F 70.0 °F 47% 29.92 in 10.0 mi SW 6.9 mph - N/A   Partly Cloudy
4:53 PM 93.9 °F 100.3 °F 70.0 °F 46% 29.91 in 10.0 mi WSW 6.9 mph - N/A   Clear
5:53 PM 91.9 °F 96.9 °F 69.1 °F 47% 29.90 in 10.0 mi WSW 6.9 mph - N/A   Clear
6:53 PM 91.0 °F 96.6 °F 70.0 °F 50% 29.91 in 10.0 mi SSW 5.8 mph - N/A   Clear
7:53 PM 88.0 °F 94.7 °F 72.0 °F 59% 29.92 in 10.0 mi Calm Calm - N/A   Clear
8:53 PM 82.9 °F 89.4 °F 73.9 °F 74% 29.94 in 10.0 mi Calm Calm - N/A   Clear
9:53 PM 80.1 °F 84.2 °F 73.0 °F 79% 29.95 in 10.0 mi Calm Calm - N/A   Clear
10:53 PM 80.1 °F 84.2 °F 73.0 °F 79% 29.94 in 10.0 mi Calm Calm - N/A   Clear
11:53 PM 78.1 °F - 73.0 °F 84% 29.94 in 10.0 mi South 3.5 mph - N/A   Clear